Content
SEND FEEDBACK

Daily
Averages
Monthly
Summary
Bulgaria

GALATA, BULGARIA


Home > Europe > Bulgaria
Elevation: 141 feet     Latitude: 43 12N     Longitude: 027 55E

WEATHER
 
SELECT A DAY
Number of Records: 300,486;   Date Range: 7/1/96 - 10/19/14
 
SHARE

PRINT THIS DATA

[ ← Previous Day ]
WEATHER ALMANAC - JANUARY 31, 2013
[ Next Day → ]
[ °C ]   °F
Weather ElementAverageHighLow
Temperature34.4 °F41 °F (3:30 pm)24.8 °F (2:00 am)
Dewpoint33.1 °F41 °F (4:30 pm)22 °F (8:00 pm)
Humidity94.6 %100 % (12:30 am)34 % (8:00 pm)
Barometer29.85 in29.99 in (2:00 am)29.74 in (1:30 pm)
Wind Speed5.8 mph20.1 mph (5:00 pm)
Wind Gust33.6 mph (6:00 pm)
Weather ElementAverage
Visibility2.8 mi
Wind DirectionSSW (191.6 °)

Weather ElementTotal
Precipitation---
Heating Degree Days32.1 (Base 65)
Averaged from 57 records on January 31, 2013
WEATHER CONDITIONS BREAKOUT
WIND DIRECTION BREAKOUT
WEATHER BY HOUR - JANUARY 31, 2013
[ °C ]   °F
Local TimeTemperatureDewpointHumidityBarometerVisibilityWind DirectionWind SpeedGust SpeedPrecipitationEventsConditions
12:30 AM26.6 °F26.6 °F100 %29.98 in0.7 miESE (120°)2.2 mphMist
1:00 AM26.6 °F26.6 °F100 %29.98 in1.3 miNorth (10°)2.2 mphMist
1:30 AM26.6 °F26.6 °F100 %29.95 in1.0 miVariable2.2 mphMist
2:00 AM30.0 °F29.0 °F93 %29.99 in1.0 miNW (320°)8.9 mphMist
2:00 AM24.8 °F24.8 °F100 %29.95 in0.3 miWest (270°)4.5 mphFogPatches of Fog
2:30 AM24.8 °F24.8 °F100 %29.95 in0.9 miNNW (340°)2.2 mphMist
3:00 AM26.6 °F26.6 °F100 %29.95 in1.2 miCalmMist
3:30 AM26.6 °F26.6 °F100 %29.92 in0.8 miSSE (160°)2.2 mphMist
4:00 AM26.6 °F26.6 °F100 %29.92 in0.1 miNW (320°)2.2 mphFogPatches of Fog
4:30 AM24.8 °F24.8 °F100 %29.89 in0.1 miWest (270°)2.2 mphFogLight Freezing Fog
5:00 AM30.0 °F29.0 °F92 %29.91 in1.0 miWNW (290°)4.5 mphMist
5:00 AM24.8 °F24.8 °F100 %29.89 in0.1 miVariable2.2 mphFogLight Freezing Fog
5:30 AM26.6 °F26.6 °F100 %29.89 in0.9 miCalmPartly Cloudy
6:00 AM28.4 °F28.4 °F100 %29.86 in1.9 miVariable2.2 mphPartly Cloudy
6:30 AM28.4 °F28.4 °F100 %29.86 in3.1 miVariable2.2 mphMostly Cloudy
7:00 AM28.4 °F28.4 °F100 %29.86 in1.9 miVariable2.2 mphMostly Cloudy
7:30 AM28.4 °F28.4 °F100 %29.83 in1.9 miVariable2.2 mphMostly Cloudy
8:00 AM34.0 °F29.0 °F75 %29.88 in5.0 miCalmMist
8:00 AM30.2 °F30.2 °F100 %29.83 in1.9 miEast (100°)2.2 mphMostly Cloudy
8:30 AM32.0 °F32.0 °F100 %29.83 in2.5 miEast (100°)4.5 mphMostly Cloudy
9:00 AM32.0 °F32.0 °F100 %29.83 in1.2 miVariable2.2 mphFogMostly Cloudy
9:30 AM32.0 °F32.0 °F100 %29.83 in1.2 miNW (320°)2.2 mphMostly Cloudy
10:00 AM33.8 °F33.8 °F100 %29.80 in1.9 miCalmMostly Cloudy
10:30 AM35.6 °F35.6 °F100 %29.80 in0.9 miCalmRainLight Rain
11:00 AM38.0 °F34.0 °F80 %29.83 in5.0 miCalmRainLight Rain
11:00 AM35.6 °F35.6 °F100 %29.80 in0.9 miWest (280°)2.2 mphRainLight Rain
11:30 AM35.6 °F35.6 °F100 %29.80 in0.9 miVariable2.2 mphRainLight Rain
12:00 PM39.2 °F37.4 °F93 %29.77 in1.9 miVariable2.2 mphDrizzle
12:30 PM39.2 °F35.6 °F87 %29.77 in3.7 miWNW (290°)4.5 mphMostly Cloudy
12:39 PM37.4 °F35.6 °F93 %29.77 in1.4 miWest (260°)4.5 mphRainLight Rain Showers
1:00 PM37.4 °F35.6 °F93 %29.77 in1.6 miVariable2.2 mphRainLight Rain
1:30 PM37.4 °F37.4 °F100 %29.74 in1.4 miVariable2.2 mphRainLight Rain
2:00 PM39.0 °F36.0 °F87 %29.77 in2.0 miNW (320°)6.7 mphRainLight Rain
2:00 PM37.4 °F37.4 °F100 %29.74 in1.2 miWest (260°)4.5 mphRainLight Rain
2:30 PM37.4 °F37.4 °F100 %29.77 in0.7 miNW (320°)4.5 mphRainLight Rain
2:43 PM39.2 °F39.2 °F100 %29.77 in3.1 miWNW (290°)13.4 mph24.6 mphRainLight Rain
3:00 PM39.2 °F39.2 °F100 %29.77 in3.1 miWNW (290°)15.7 mphRainLight Rain
3:30 PM41.0 °F39.2 °F93 %29.77 in2.5 miWNW (290°)13.4 mphRainRain
4:00 PM41.0 °F39.2 °F93 %29.77 in3.7 miWNW (300°)15.7 mphRainRain
4:30 PM41.0 °F41.0 °F100 %29.80 in5.0 miNW (310°)15.7 mphRainLight Rain
5:00 PM40.0 °F38.0 °F88 %29.81 in6.0 miNW (320°)11.2 mphRainLight Rain
5:00 PM41.0 °F39.2 °F93 %29.80 in5.6 miNW (320°)20.1 mphRainLight Rain
5:30 PM39.2 °F37.4 °F93 %29.80 in4.3 miNW (320°)15.7 mph29.1 mphRainLight Rain
6:00 PM39.2 °F37.4 °F93 %29.80 in6.2 miNNW (340°)17.9 mph33.6 mphOvercast
6:30 PM39.2 °F37.4 °F93 %29.83 in6.2 miNNW (330°)11.2 mphRainLight Rain
7:00 PM39.2 °F37.4 °F93 %29.86 in6.2 miWNW (290°)8.9 mphRainLight Rain
7:30 PM39.2 °F37.4 °F93 %29.86 in6.2 miWest (280°)8.9 mphScattered Clouds
8:00 PM41.0 °F22.0 °F34 %29.88 in6.0 miWest (270°)4.5 mphPartly Cloudy
8:00 PM39.2 °F37.4 °F93 %29.89 in6.2 miWest (280°)8.9 mphScattered Clouds
8:30 PM37.4 °F35.6 °F93 %29.89 inWest (270°)6.7 mphClear
9:00 PM37.4 °F35.6 °F93 %29.89 in5.6 miWSW (250°)6.7 mph
9:30 PM37.4 °F37.4 °F100 %29.89 in5.6 miWNW (300°)4.5 mph
10:00 PM37.4 °F37.4 °F100 %29.89 in5.0 miNW (310°)6.7 mph
10:30 PM37.4 °F35.6 °F93 %29.89 inWNW (300°)6.7 mphClear
11:00 PM41.0 °F36.0 °F77 %29.90 in6.0 miNorth11.2 mphMostly Cloudy
11:00 PM39.2 °F35.6 °F87 %29.92 inWSW (250°)6.7 mphClear
11:30 PM35.6 °F35.6 °F100 %29.92 inWest (280°)11.2 mphClear
Hourly data recorded from LBWN, located miles away from Galata, Bulgaria







STORIES FROM OUR PARTNERS